Starlink 33851

operational
NORAD ID: 63683 Int'l Des: 2025-085 Owner: SPXS Country: US Constellation: starlink
LEOCIRCULAR

Über Starlink 33851

Beschreibung wird geladen...

Live-Position

3D-Globus wird geladen...

Nächste Überflüge

Höhenverlauf

Altitude vs Time

uPlot chart will show altitude changes over time

Zweizeiliger Elementsatz

1 63683U 25085V 26035.54200320 .00027291 00000-0 99704-3 0 9991
2 63683 42.9940 217.8303 0000321 214.1900 145.8931 15.27597949 43807
Epoch: 4. Feb. 2026 • Age: 24 hours

Aktueller Status

Höhe 485.8 km
Geschwindigkeit 7.63 km/s
Subsatellitenpunkt 41.80°N, 10.96°W
Startdatum 28. Apr. 2025
Alter 0.7 years
Typ internet

Technische Details

Klassifizierung Payload
Masse 575.00 kg
Trockenmasse 530.00 kg
Gesamtmasse 575.00 kg
Länge 0.30 m
Durchmesser 4.10 m
Spannweite 29.00 m
Form Box + pan
Hersteller SPXS
Bus-Typ Starlink V2MO
Phasenstatus In Orbit
Besitzer/Staat SPXS/US

Große Konstellationen

Loading constellations...